SILO ALERT LOG
| Silo ID | Alert Type | Alert Message | Silo Type | Points | Depth (mm) | Strength | Temperature (°C) | Humidity (%) | Height (mm) | Volume (㎥) | Weight (t) | Flag | Time |
|---|---|---|---|---|---|---|---|---|---|---|---|---|---|
| DJHNR13 | Temperature | 온도센서 측정값이 0도 미만 | 호퍼 | 32 | 2805 | 3001 | -2.9 | 70.3 | 7574 | 109.443 | 69.19 | 11 | 2024-01-11 06:39:30.000 |
| DJHNR14 | Temperature | 온도센서 측정값이 0도 미만 | 호퍼 | 28 | 3020 | 4468 | -3.3 | 73.4 | 7359 | 104.792 | 66.249 | 11 | 2024-01-11 06:39:30.000 |
| DJHNR03 | Temperature | 온도센서 상태 이상 | 호퍼 | 0 | 15500 | 0 | -999 | -999 | -119 | 0 | 0 | 31 | 2024-01-11 06:39:25.000 |
| DJSSD12 | Temperature | 온도센서 상태 이상 | 호퍼 | 0 | 11350 | 0 | -999 | -999 | -120 | 0 | 0 | 31 | 2024-01-11 06:39:25.000 |
| DJHNR12 | Temperature | 온도센서 측정값이 0도 미만 | 호퍼 | 0 | 10500 | 0 | -4.1 | 82.8 | -120 | 0 | 0 | 31 | 2024-01-11 06:39:23.000 |
| DJHNR12 | Humidity | 습도센서 측정값이 80% 초과 | 호퍼 | 0 | 10500 | 0 | -4.1 | 82.8 | -120 | 0 | 0 | 31 | 2024-01-11 06:39:23.000 |
| DJSAD03 | Humidity | 습도센서 측정값이 80% 초과 | 평 | 441 | 1719 | 6070 | 1.3 | 84.5 | 7060 | 292.286 | 184.783 | 0 | 2024-01-11 05:39:40.000 |
| DJSAD02 | Humidity | 습도센서 측정값이 80% 초과 | 평 | 380 | 1132 | 4283 | 1.3 | 88.1 | 7647 | 316.56 | 200.129 | 11 | 2024-01-11 05:39:39.000 |
| DJDJD03 | Humidity | 습도센서 측정값이 80% 초과 | 평 | 64 | 4239 | 5057 | 1.1 | 81.1 | 3440 | 416.834 | 263.523 | 0 | 2024-01-11 05:39:39.000 |
| DJSAD01 | Humidity | 습도센서 측정값이 80% 초과 | 평 | 462 | 1478 | 7280 | 0.4 | 88.6 | 7301 | 302.236 | 191.074 | 0 | 2024-01-11 05:39:39.000 |
| DJSAD08 | Humidity | 습도센서 측정값이 80% 초과 | 평 | 0 | 7700 | 3790 | 12.4 | 81.2 | -120 | -17.075 | 0 | 12 | 2024-01-11 05:39:38.000 |
| DJHNR08 | Temperature | 온도센서 측정값이 0도 미만 | 평 | 378 | 5377 | 2136 | -0.5 | 68.4 | 2302 | 327.652 | 207.141 | 11 | 2024-01-11 05:39:36.000 |
| DJSAD11 | Humidity | 습도센서 측정값이 80% 초과 | 평 | 338 | 1627 | 3267 | 0.6 | 80.5 | 5952 | 847.017 | 535.484 | 11 | 2024-01-11 05:39:35.000 |
| DJSSD04 | Temperature | 온도센서 상태 이상 | 평 | 0 | 8200 | 0 | -999 | -999 | -120 | -16.702 | 0 | 31 | 2024-01-11 05:39:34.000 |
| DJSSD01 | Humidity | 습도센서 측정값이 80% 초과 | 평 | 795 | 2550 | 4656 | 4.7 | 83.9 | 5529 | 769.594 | 486.538 | 0 | 2024-01-11 05:39:33.000 |
| DJSSD05 | Temperature | 온도센서 측정값이 0도 미만 | 평 | 849 | 2545 | 4900 | -45.4 | 43.4 | 5534 | 770.288 | 486.976 | 0 | 2024-01-11 05:39:33.000 |
| DJSSD11 | Temperature | 온도센서 측정값이 0도 미만 | 호퍼 | 443 | 7409 | 147 | -4.1 | 82.2 | 3820 | 28.478 | 15.521 | 0 | 2024-01-11 05:39:32.000 |
| DJSSD11 | Humidity | 습도센서 측정값이 80% 초과 | 호퍼 | 443 | 7409 | 147 | -4.1 | 82.2 | 3820 | 28.478 | 15.521 | 0 | 2024-01-11 05:39:32.000 |
| DJSSD09 | Temperature | 온도센서 측정값이 0도 미만 | 평 | 115 | 3004 | 3411 | -45.4 | 0 | 4675 | 650.71 | 411.379 | 11 | 2024-01-11 05:39:32.000 |
| DJHNR11 | Temperature | 온도센서 측정값이 0도 미만 | 호퍼 | 233 | 3262 | 1080 | -4.3 | 75.2 | 7117 | 99.578 | 62.953 | 11 | 2024-01-11 05:39:32.000 |
[첫 페이지] [10003] [10004] [10005] [10006] 10007 [10008] [10009] [10010] [10011] [마지막 페이지]